• In Hungary
  • List of Countries
  • For 7 days
  • Water Temperature
  • Satellite Maps
  • Weather Map
  • News
  • Weather Widgets
  • user-avatar
    Login

    Hourly Weather Nove Mesto na Morave

    Today, 18 June, Monday

    Time Temperature Precipitation Wind Pressure Humidity
    00:00 +15°C° 0 mm 2 mps 708 mmHg 86%
    01:00 +14°C° 0 mm 2 mps 708 mmHg 89%
    02:00 +14°C° 0 mm 2 mps 708 mmHg 90%
    03:00 +12°C° 0 mm 3 mps 708 mmHg 92%
    04:00 +12°C° 0 mm 3 mps 708 mmHg 94%
    05:00 +13°C° 0 mm 3 mps 708 mmHg 91%
    06:00 +14°C° 0 mm 3 mps 709 mmHg 88%
    07:00 +15°C° 0 mm 4 mps 709 mmHg 86%
    08:00 +17°C° 0.2 mm 4 mps 710 mmHg 82%
    09:00 +17°C° 0.2 mm 5 mps 710 mmHg 78%
    10:00 +20°C° 0.2 mm 5 mps 710 mmHg 74%
    11:00 +20°C° 0.2 mm 5 mps 710 mmHg 70%
    12:00 +21°C° 0.2 mm 5 mps 710 mmHg 67%
    13:00 +22°C° 0.2 mm 4 mps 710 mmHg 63%
    14:00 +22°C° 0.1 mm 4 mps 710 mmHg 63%
    15:00 +22°C° 0.1 mm 4 mps 710 mmHg 64%
    16:00 +21°C° 0.1 mm 4 mps 710 mmHg 64%
    17:00 +20°C° 0 mm 4 mps 710 mmHg 69%
    18:00 +19°C° 0 mm 3 mps 710 mmHg 75%
    19:00 +18°C° 0 mm 3 mps 710 mmHg 80%
    20:00 +17°C° 0 mm 2 mps 711 mmHg 83%
    21:00 +15°C° 0 mm 2 mps 711 mmHg 86%
    22:00 +14°C° 0 mm 2 mps 711 mmHg 89%
    23:00 +14°C° 0 mm 2 mps 711 mmHg 90%

    Tomorrow, 19 June, Tuesday

    Time Temperature Precipitation Wind Pressure Humidity
    00:00 +13°C° 0 mm 2 mps 711 mmHg 90%
    01:00 +13°C° 0 mm 2 mps 711 mmHg 90%
    02:00 +12°C° 0 mm 2 mps 711 mmHg 91%
    03:00 +12°C° 0 mm 2 mps 711 mmHg 91%
    04:00 +12°C° 0 mm 2 mps 711 mmHg 91%
    05:00 +13°C° 0 mm 2 mps 712 mmHg 87%
    06:00 +15°C° 0 mm 2 mps 712 mmHg 83%
    07:00 +17°C° 0 mm 2 mps 712 mmHg 79%
    08:00 +18°C° 0 mm 3 mps 712 mmHg 76%
    09:00 +19°C° 0 mm 3 mps 713 mmHg 72%
    10:00 +21°C° 0 mm 3 mps 713 mmHg 68%
    11:00 +21°C° 0.1 mm 3 mps 713 mmHg 67%
    12:00 +22°C° 0.1 mm 3 mps 713 mmHg 65%
    13:00 +22°C° 0.1 mm 3 mps 713 mmHg 63%
    14:00 +22°C° 0.1 mm 3 mps 713 mmHg 64%
    15:00 +24°C° 0.1 mm 3 mps 712 mmHg 65%
    16:00 +24°C° 0.1 mm 3 mps 712 mmHg 66%
    17:00 +23°C° 0.1 mm 2 mps 712 mmHg 71%
    18:00 +21°C° 0.1 mm 2 mps 712 mmHg 76%
    19:00 +20°C° 0.1 mm 2 mps 712 mmHg 81%
    20:00 +19°C° 0 mm 1 mps 712 mmHg 84%
    21:00 +18°C° 0 mm 1 mps 712 mmHg 86%
    22:00 +16°C° 0 mm 1 mps 712 mmHg 89%
    23:00 +15°C° 0 mm 1 mps 712 mmHg 90%

    Day after tomorrow, 20 June, Wednesday

    Time Temperature Precipitation Wind Pressure Humidity
    00:00 +15°C° 0 mm 1 mps 712 mmHg 90%
    01:00 +15°C° 0 mm 1 mps 712 mmHg 91%
    02:00 +14°C° 0 mm 1 mps 712 mmHg 91%
    03:00 +14°C° 0 mm 1 mps 712 mmHg 91%
    04:00 +14°C° 0 mm 1 mps 712 mmHg 92%
    05:00 +15°C° 0 mm 1 mps 712 mmHg 88%
    06:00 +18°C° 0 mm 1 mps 713 mmHg 84%
    07:00 +20°C° 0 mm 1 mps 713 mmHg 80%
    08:00 +21°C° 0 mm 1 mps 713 mmHg 75%
    09:00 +22°C° 0 mm 1 mps 713 mmHg 70%
    10:00 +24°C° 0 mm 1 mps 713 mmHg 65%
    11:00 +24°C° 0.1 mm 1 mps 713 mmHg 63%
    12:00 +25°C° 0.1 mm 1 mps 713 mmHg 62%
    13:00 +25°C° 0.1 mm 1 mps 713 mmHg 60%
    14:00 +26°C° 0.1 mm 1 mps 712 mmHg 60%
    15:00 +26°C° 0.1 mm 1 mps 712 mmHg 60%
    16:00 +26°C° 0.1 mm 1 mps 712 mmHg 61%
    17:00 +25°C° 0.1 mm 1 mps 711 mmHg 66%
    18:00 +24°C° 0.1 mm 1 mps 711 mmHg 72%
    19:00 +23°C° 0.1 mm 1 mps 711 mmHg 78%
    20:00 +21°C° 0 mm 1 mps 711 mmHg 80%
    21:00 +20°C° 0 mm 1 mps 710 mmHg 83%
    22:00 +19°C° 0 mm 1 mps 710 mmHg 86%
    23:00 +18°C° 0 mm 1 mps 710 mmHg 86%

    21 June, Thursday

    Time Temperature Precipitation Wind Pressure Humidity
    00:00 +18°C° 0 mm 1 mps 710 mmHg 87%
    01:00 +16°C° 0 mm 1 mps 709 mmHg 87%
    02:00 +16°C° 0 mm 1 mps 709 mmHg 87%
    03:00 +16°C° 0 mm 1 mps 708 mmHg 87%
    04:00 +15°C° 0 mm 1 mps 708 mmHg 87%
    05:00 +18°C° 0 mm 1 mps 708 mmHg 84%
    06:00 +20°C° 0 mm 1 mps 708 mmHg 80%
    07:00 +20°C° 0 mm 2 mps 708 mmHg 77%
    08:00 +23°C° 0.1 mm 2 mps 708 mmHg 75%
    09:00 +24°C° 0.1 mm 3 mps 707 mmHg 73%
    10:00 +25°C° 0.1 mm 4 mps 707 mmHg 71%
    11:00 +26°C° 0.6 mm 4 mps 707 mmHg 70%
    12:00 +26°C° 0.6 mm 4 mps 706 mmHg 69%
    13:00 +27°C° 0.6 mm 4 mps 706 mmHg 68%
    14:00 +27°C° 1.3 mm 4 mps 705 mmHg 69%
    15:00 +27°C° 1.3 mm 3 mps 705 mmHg 69%
    16:00 +27°C° 1.3 mm 3 mps 704 mmHg 69%
    17:00 +26°C° 0.9 mm 3 mps 704 mmHg 73%
    18:00 +24°C° 0.9 mm 3 mps 704 mmHg 77%
    19:00 +23°C° 0.9 mm 2 mps 703 mmHg 82%
    20:00 +21°C° 0.1 mm 3 mps 703 mmHg 85%
    21:00 +19°C° 0.1 mm 4 mps 704 mmHg 88%
    22:00 +17°C° 0.1 mm 5 mps 704 mmHg 91%
    23:00 +15°C° 0.1 mm 6 mps 704 mmHg 91%

    22 June, Friday

    Time Temperature Precipitation Wind Pressure Humidity
    00:00 +14°C° 0.1 mm 6 mps 705 mmHg 91%
    01:00 +13°C° 0.1 mm 6 mps 705 mmHg 90%
    02:00 +10°C° 0 mm 6 mps 705 mmHg 90%
    03:00 +9°C° 0 mm 6 mps 705 mmHg 90%
    04:00 +8°C° 0 mm 5 mps 706 mmHg 90%
    05:00 +8°C° 0 mm 6 mps 706 mmHg 86%
    06:00 +8°C° 0 mm 6 mps 707 mmHg 83%
    07:00 +8°C° 0 mm 6 mps 707 mmHg 80%
    08:00 +8°C° 0 mm 6 mps 708 mmHg 78%
    09:00 +8°C° 0 mm 6 mps 708 mmHg 76%
    10:00 +8°C° 0 mm 6 mps 708 mmHg 74%
    11:00 +9°C° 0 mm 7 mps 708 mmHg 71%
    12:00 +9°C° 0 mm 7 mps 708 mmHg 69%
    13:00 +10°C° 0 mm 7 mps 708 mmHg 66%
    14:00 +10°C° 0 mm 6 mps 708 mmHg 66%
    15:00 +10°C° 0 mm 5 mps 708 mmHg 66%
    16:00 +10°C° 0 mm 5 mps 708 mmHg 66%
    17:00 +11°C° 0 mm 4 mps 708 mmHg 69%
    18:00 +11°C° 0 mm 4 mps 708 mmHg 72%
    19:00 +11°C° 0 mm 4 mps 708 mmHg 75%
    20:00 +9°C° 0 mm 3 mps 708 mmHg 77%
    21:00 +8°C° 0 mm 3 mps 708 mmHg 80%
    22:00 +7°C° 0 mm 3 mps 708 mmHg 82%
    23:00 +6°C° 0 mm 4 mps 708 mmHg 83%

    23 June, Saturday

    Time Temperature Precipitation Wind Pressure Humidity
    00:00 +6°C° 0 mm 4 mps 708 mmHg 84%
    01:00 +6°C° 0 mm 4 mps 708 mmHg 85%
    02:00 +6°C° 0 mm 4 mps 708 mmHg 86%
    03:00 +6°C° 0 mm 4 mps 708 mmHg 87%
    04:00 +5°C° 0 mm 4 mps 708 mmHg 88%
    05:00 +6°C° 0 mm 4 mps 708 mmHg 85%
    06:00 +7°C° 0 mm 5 mps 708 mmHg 82%
    07:00 +8°C° 0 mm 5 mps 709 mmHg 79%
    08:00 +9°C° 0.1 mm 5 mps 709 mmHg 77%
    09:00 +10°C° 0.1 mm 5 mps 709 mmHg 74%
    10:00 +10°C° 0.1 mm 5 mps 709 mmHg 71%
    11:00 +11°C° 0.1 mm 6 mps 709 mmHg 68%
    12:00 +13°C° 0.1 mm 6 mps 709 mmHg 65%
    13:00 +13°C° 0.1 mm 6 mps 709 mmHg 62%
    14:00 +14°C° 0.1 mm 6 mps 709 mmHg 62%
    15:00 +14°C° 0.1 mm 5 mps 709 mmHg 62%
    16:00 +14°C° 0.1 mm 5 mps 709 mmHg 62%
    17:00 +13°C° 0 mm 5 mps 709 mmHg 67%
    18:00 +12°C° 0 mm 4 mps 709 mmHg 71%
    19:00 +11°C° 0 mm 3 mps 709 mmHg 76%
    20:00 +10°C° 0 mm 3 mps 709 mmHg 80%
    21:00 +8°C° 0 mm 2 mps 709 mmHg 83%
    22:00 +7°C° 0 mm 2 mps 710 mmHg 87%
    23:00 +6°C° 0 mm 2 mps 710 mmHg 89%
    Show more